Weather History for Ogden, UT

Change the Weather History Date:

Friday, January 31, 2014

  Actual Average Record
Temperature  
Mean Temperature 30 °F -  
Max Temperature 33 °F 35 °F 60 °F (2003)
Min Temperature 26 °F 17 °F -14 °F (1985)
Degree Days  
Heating Degree Days 36    
Moisture  
Dew Point 26 °F    
Average Humidity 86    
Maximum Humidity 96    
Minimum Humidity 61    
Precipitation  
Precipitation 0.00 in - - ()
Sea Level Pressure  
Sea Level Pressure 29.80 in    
Wind  
Wind Speed 2 mph (NNW)    
Max Wind Speed 10 mph    
Max Gust Speed -    
Visibility 4 miles    
Events Fog    
Averages and records for this station are not official NWS values.
T = Trace of Precipitation, MM = Missing Value Source: NWS Daily Summary

Daily Weather History Graph

Daily Weather History Graph

Search for Another Location

Airport:

Trip Planner

Search our weather history database for the weather conditions in past years. The results will help you decide how hot, cold, wet, or windy it might be!

Date:

Astronomy

Jan. 31, 2014 Rise Set
Actual Time 7:39 AM MST 5:43 PM MST
Civil Twilight 7:10 AM MST 6:12 PM MST
Nautical Twilight 6:37 AM MST 6:45 PM MST
Astronomical Twilight 6:05 AM MST 7:18 PM MST
Moon 7:51 AM MST (1/31) 7:13 PM MST (1/31)
Length of Visible Light 11h 02m
Length of Day
10h 03m
New Moon, 1% of the Moon is Illuminated
Jan 31
New Moon
Feb 6
First Quarter
Feb 14
Full
Feb 22
Last Quarter
Mar 1
New

Hourly Weather History & Observations

Time (MST) Temp. Windchill Dew Point Humidity Pressure Visibility Wind Dir Wind Speed Gust Speed Precip Events Conditions
12:53 AM 32.0 °F - 28.9 °F 88% 29.79 in 8.0 mi Calm Calm - N/A   Mostly Cloudy
1:08 AM 32.0 °F - 28.9 °F 88% 29.78 in 5.0 mi Calm Calm - N/A   Scattered Clouds
1:17 AM 30.9 °F - 28.9 °F 92% 29.78 in 4.0 mi Calm Calm - N/A   Mostly Cloudy
1:30 AM 30.9 °F - 28.9 °F 92% 29.77 in 3.0 mi Calm Calm - N/A   Mostly Cloudy
1:41 AM 32.0 °F - 30.0 °F 92% 29.77 in 3.0 mi Calm Calm - N/A   Scattered Clouds
1:53 AM 32.0 °F - 30.0 °F 92% 29.78 in 3.0 mi Calm Calm - N/A   Partly Cloudy
1:55 AM 32.0 °F - 30.0 °F 92% 29.77 in 1.5 mi Calm Calm - N/A   Clear
1:59 AM 30.0 °F 26.5 °F 28.0 °F 92% 29.76 in 0.5 mi ENE 3.5 mph - N/A Fog Light Freezing Fog
2:19 AM 27.0 °F - 26.1 °F 96% 29.77 in 0.2 mi Calm Calm - N/A Fog Light Freezing Fog
2:30 AM 28.0 °F - 26.1 °F 92% 29.77 in 0.5 mi Calm Calm - N/A Fog Light Freezing Fog
2:33 AM 28.0 °F - 26.1 °F 92% 29.77 in 1.0 mi Calm Calm - N/A   Mostly Cloudy
2:43 AM 30.0 °F - 28.0 °F 92% 29.77 in 2.0 mi Calm Calm - N/A   Mostly Cloudy
2:53 AM 30.9 °F - 28.9 °F 92% 29.78 in 3.0 mi Calm Calm - N/A   Overcast
3:05 AM 30.0 °F - 28.0 °F 92% 29.77 in 2.0 mi Calm Calm - N/A   Overcast
3:21 AM 30.0 °F 25.2 °F 27.0 °F 88% 29.77 in 2.0 mi SE 4.6 mph - N/A   Mostly Cloudy
3:27 AM 30.0 °F 25.2 °F 28.0 °F 92% 29.77 in 1.8 mi SSE 4.6 mph - N/A   Mostly Cloudy
3:34 AM 30.0 °F 25.2 °F 27.0 °F 88% 29.77 in 2.0 mi South 4.6 mph - N/A   Mostly Cloudy
3:48 AM 28.4 °F 23.3 °F 26.6 °F 93% 29.77 in 4.0 mi South 4.6 mph - N/A   Overcast
3:53 AM 28.9 °F 23.9 °F 27.0 °F 92% 29.80 in 3.0 mi South 4.6 mph - N/A   Overcast
4:14 AM 28.9 °F 25.2 °F 27.0 °F 92% 29.77 in 3.0 mi WNW 3.5 mph - N/A   Overcast
4:20 AM 28.0 °F 19.3 °F 26.1 °F 92% 29.77 in 1.8 mi NNW 9.2 mph - N/A   Overcast
4:23 AM 27.0 °F 21.6 °F 25.0 °F 92% 29.77 in 0.8 mi NW 4.6 mph - N/A   Overcast
4:30 AM 27.0 °F 20.5 °F 24.1 °F 89% 29.77 in 0.2 mi NNW 5.8 mph - N/A Fog Light Freezing Fog
4:42 AM 27.0 °F 23.0 °F 25.0 °F 92% 29.77 in 0.2 mi North 3.5 mph - N/A Fog Light Freezing Fog
4:53 AM 28.0 °F - 26.1 °F 92% 29.79 in 0.2 mi Calm Calm - N/A Fog Light Freezing Fog
5:01 AM 28.0 °F - 26.1 °F 92% 29.76 in 0.2 mi Calm Calm - N/A Fog Light Freezing Fog
5:14 AM 28.0 °F - 25.0 °F 88% 29.76 in 1.0 mi Calm Calm - N/A   Mist
5:17 AM 28.0 °F - 25.0 °F 88% 29.76 in 2.5 mi Calm Calm - N/A   Scattered Clouds
5:24 AM 28.0 °F 24.2 °F 25.0 °F 88% 29.76 in 6.0 mi ENE 3.5 mph - N/A   Partly Cloudy
5:30 AM 26.1 °F 21.9 °F 24.1 °F 92% 29.76 in 1.0 mi NNW 3.5 mph - N/A   Mist
5:37 AM 26.1 °F 20.5 °F 23.0 °F 88% 29.76 in 0.2 mi North 4.6 mph - N/A Fog Light Freezing Fog
5:53 AM 26.1 °F 21.9 °F 23.0 °F 88% 29.79 in 0.2 mi WNW 3.5 mph - N/A Fog Light Freezing Fog
6:53 AM 26.1 °F 20.5 °F 24.1 °F 92% 29.81 in 0.2 mi NW 4.6 mph - N/A Fog Light Freezing Fog
7:53 AM 27.0 °F 20.5 °F 25.0 °F 92% 29.82 in 0.2 mi NW 5.8 mph - N/A Fog Light Freezing Fog
8:44 AM 28.9 °F - 27.0 °F 92% 29.80 in 1.0 mi Calm Calm - N/A   Overcast
8:53 AM 28.0 °F - 26.1 °F 92% 29.83 in 2.5 mi Calm Calm - N/A   Overcast
9:03 AM 28.9 °F - 27.0 °F 92% 29.80 in 4.0 mi Calm Calm - N/A   Overcast
9:53 AM 28.9 °F 23.9 °F 26.1 °F 89% 29.84 in 10.0 mi NNE 4.6 mph - N/A   Overcast
10:22 AM 30.0 °F 24.1 °F 27.0 °F 88% 29.81 in 2.5 mi NW 5.8 mph - N/A   Overcast
10:28 AM 30.0 °F 24.1 °F 27.0 °F 88% 29.81 in 1.5 mi NW 5.8 mph - N/A   Overcast
10:40 AM 30.0 °F 26.5 °F 28.0 °F 92% 29.81 in 3.0 mi NNE 3.5 mph - N/A   Overcast
10:49 AM 30.2 °F - 28.4 °F 93% 29.80 in 5.0 mi Calm Calm - N/A   Mostly Cloudy
10:53 AM 30.0 °F - 28.9 °F 96% 29.83 in 5.0 mi Calm Calm - N/A   Scattered Clouds
11:53 AM 30.0 °F 25.2 °F 27.0 °F 88% 29.83 in 9.0 mi NW 4.6 mph - N/A   Partly Cloudy
12:07 PM 30.0 °F 25.2 °F 28.0 °F 92% 29.80 in 7.0 mi NW 4.6 mph - N/A   Mostly Cloudy
12:16 PM 30.9 °F 25.2 °F 28.0 °F 89% 29.79 in 7.0 mi NW 5.8 mph - N/A   Scattered Clouds
12:53 PM 30.9 °F 24.3 °F 27.0 °F 85% 29.81 in 9.0 mi NW 6.9 mph - N/A   Partly Cloudy
1:53 PM 30.9 °F 24.3 °F 24.1 °F 76% 29.81 in 10.0 mi NW 6.9 mph - N/A   Clear
2:53 PM 33.1 °F 24.9 °F 21.0 °F 61% 29.81 in 10.0 mi NW 10.4 mph - N/A   Overcast
3:53 PM 33.1 °F 24.9 °F 21.9 °F 64% 29.84 in 10.0 mi NNW 10.4 mph - N/A   Overcast
4:53 PM 32.0 °F 25.6 °F 19.9 °F 61% 29.86 in 10.0 mi NW 6.9 mph - N/A   Overcast
5:53 PM 30.9 °F - 19.9 °F 64% 29.88 in 10.0 mi Calm Calm - N/A   Partly Cloudy
6:53 PM 28.0 °F 22.8 °F 17.1 °F 63% 29.91 in 10.0 mi NNW 4.6 mph - N/A   Clear
7:53 PM 28.9 °F 23.9 °F 18.0 °F 64% 29.91 in 10.0 mi NNW 4.6 mph - N/A   Scattered Clouds
8:53 PM 28.0 °F 24.2 °F 19.0 °F 69% 29.92 in 10.0 mi NW 3.5 mph - N/A   Overcast
9:53 PM 27.0 °F - 19.0 °F 72% 29.93 in 10.0 mi Calm Calm - N/A   Overcast
10:53 PM 27.0 °F 23.0 °F 19.0 °F 72% 29.93 in 10.0 mi NW 3.5 mph - N/A   Overcast
11:53 PM 27.0 °F - 19.0 °F 72% 29.94 in 10.0 mi Calm Calm - N/A   Overcast